Regional Weather Roundup
Issued by NWS Sioux Falls, SD

Home | Current Version | Previous Version | Text Only | Print | Product List | Glossary On
Versions: 1 2 3 4 5 6 7 8 9 10 11 12 13 14 15 16 17 18 19 20 21 22 23 24 25 26 27 28 29 30 31 32 33 34 35 36 37 38 39 40 41 42 43 44 45 46 47 48 49 50
000
ASUS43 KFSD 210710
RWRFSD

WEATHER ROUNDUP FOR SE SOUTH DAKOTA/SW MINNESOTA/NW IOWA
NATIONAL WEATHER SERVICE SIOUX FALLS SD
200 AM CDT SUN SEP 21 2014

NOTE: "FAIR" INDICATES FEW OR NO CLOUDS BELOW 12,000 FEET WITH NO
SIGNIFICANT WEATHER AND OR OBSTRUCTIONS TO VISIBILITY.


SDZ038>040-050-052>070-210800-
SOUTHEAST SOUTH DAKOTA

CITY           SKY/WX    TMP DP  RH WIND       PRES   REMARKS
CHAMBERLAIN    CLEAR     51  40  65 NW7       30.16R
HURON          CLEAR     51  40  65 NW9       30.10R
MADISON        FAIR      50  45  81 NW9       30.07R
MITCHELL       CLEAR     55  42  61 NW9       30.12R
SIOUX FALLS    CLEAR     56  44  64 W10       30.07R
WINNER         FAIR      51  39  63 W9        30.19R
YANKTON        CLEAR     57  43  58 W10       30.11R
$$

MNZ071-072-080-081-089-090-097-098-210800-
SOUTHWEST MINNESOTA

CITY           SKY/WX    TMP DP  RH WIND       PRES   REMARKS
FAIRMONT       CLEAR     59  43  55 W12       29.95S
JACKSON        CLEAR     57  43  58 W12       29.99R
LUVERNE        CLEAR     57  45  62 NW10      30.05R
MARSHALL       CLEAR     57  41  54 NW14      29.99R
MONTEVIDEO     CLEAR     54  46  76 N9        29.99R
PIPESTONE      CLEAR     55  45  67 NW12      30.04R
REDWOOD FALLS  CLEAR     56  47  71 NW12      29.96R
TRACY          CLEAR     57  45  63 W7        30.00R
WINDOM         CLEAR     55  46  71 W10       29.99R
WORTHINGTON    CLEAR     55  43  62 W14       30.02R
$$

IAZ001>003-012>014-020>022-031-032-NEZ013-014-SDZ071-210800-
NORTHWEST IOWA

CITY           SKY/WX    TMP DP  RH WIND       PRES   REMARKS
CHEROKEE       CLEAR     57  48  72 W7        30.04S
DENISON        CLEAR     54  54 100 E3        30.03F
ESTHERVILLE    CLEAR     56  46  69 W10       29.98S
LE MARS          N/A     54  48  82 W6        30.07R
ORANGE CITY    CLEAR     52  45  76 W5        30.06R
SHELDON        CLEAR     55  46  71 W7        30.03R
SIOUX CITY     CLEAR     57  50  77 W7        30.08R
SPENCER        CLEAR     54  47  77 W12       30.01S
$$

ABBREVIATIONS USED IN REMARKS
   TC - TEMPERATURE IN CELSIUS
  WCI - WIND CHILL INDEX
   HX - HEAT INDEX
  VSB - VISIBILITY




USA.gov is the U.S. government's official web portal to all federal, state and local government web resources and services.